Powrót do katalogu

SL-16 DEB

AktywnyLEO
NORAD 39895·DEBRIS·🇷🇺 Russia

Wystrzelony Mar 26, 1993 z Baikonur Cosmodrome

Loading…

Następne Przeloty (najbliższe 24 godziny)

TLE

NieaktualneSource: Space-Track

Epoka: Aug 24, 2026, 18:19 UTC

1 39895U 93016BV  26236.76326070  .00000297  00000-0  23391-3 0  9992
2 39895  70.9892  58.7609 0122135 215.2198 144.0800 13.96296224343492

Śledź SL-16 DEB w czasie rzeczywistym z AllMySat

Download on the App Store